Regional Weather Roundup
Issued by NWS Charleston, WV

Home | Current Version | Previous Version | Graphics & Text | Print | Product List | Glossary On
Versions: 1 2 3 4 5 6 7 8 9 10 11 12 13 14 15 16 17 18 19 20 21 22 23 24 25 26 27 28 29 30 31 32 33 34 35 36 37 38 39 40 41 42 43 44 45 46 47 48 49 50
000
ASUS41 KRLX 031810
RWRRLX
West Virginia Regional Weather Roundup
National Weather Service Charleston WV
200 PM EDT THU SEP 03 2015

Note: "fair" indicates few or no clouds below 12,000 feet with no
significant weather and/or obstructions to visibility.

WVZ003-031900-
Northern Panhandle of West Virginia

CITY           SKY/WX    TMP DP  RH WIND       PRES   REMARKS
WHEELING       PTSUNNY   85  68  56 NW5       29.99F
$$

WVZ009-031900-
Northwest West Virginia

CITY           SKY/WX    TMP DP  RH WIND       PRES   REMARKS
PARKERSBURG    MOSUNNY   81  70  69 VRB5      30.03F
$$

WVZ006-031900-
Western West Virginia

CITY           SKY/WX    TMP DP  RH WIND       PRES   REMARKS
HUNTINGTON     MOSUNNY   86  68  54 CALM      30.00F
$$

WVZ015-031900-
West Central West Virginia

CITY           SKY/WX    TMP DP  RH WIND       PRES   REMARKS
CHARLESTON     MOSUNNY   83  66  56 CALM      30.01F
$$

WVZ022-031-031900-
North Central West Virginia

CITY           SKY/WX    TMP DP  RH WIND       PRES   REMARKS
CLARKSBURG     PTSUNNY   80  69  69 VRB6      30.01F
MORGANTOWN     MOSUNNY   85  65  51 W6        30.01F
$$

WVZ025-035-042-045-031900-
Southern West Virginia

CITY           SKY/WX    TMP DP  RH WIND       PRES   REMARKS
BECKLEY        MOSUNNY   78  66  66 N8        30.10F
LOGAN            N/A     82  68  61 CALM      30.05F
BLUEFIELD      MOSUNNY   80  64  58 VRB6      30.12F
LEWISBURG      MOSUNNY   81  65  57 CALM      30.07F
$$

WVZ047-031900-
Northern Mountains of West Virginia

CITY           SKY/WX    TMP DP  RH WIND       PRES   REMARKS
ELKINS         PTSUNNY   77  65  66 SW7       30.05F
$$

WVZ052-031900-
Eastern Panhandle of West Virginia

CITY           SKY/WX    TMP DP  RH WIND       PRES   REMARKS
MARTINSBURG    MOSUNNY   88  63  43 W5G21     29.92F
PETERSBURG     RAIN      76  64  66 SW9G31    29.97F VSB 3/4
$$


USA.gov is the U.S. government's official web portal to all federal, state and local government web resources and services.